Cortland, IL

6:28 PM CDT on September 28, 2016 (GMT -0500)
De Kalb Taylor Municipal

Weather History for KDKB - January, 2012

Change the Weather History Date:

Saturday, January 28, 2012

  Actual Average (KARR) Record (KARR)
Temperature  
Mean Temperature 28 °F 21 °F  
Max Temperature 33 °F 29 °F 54 °F (2002)
Min Temperature 24 °F 12 °F -15 °F (2014)
Degree Days  
Heating Degree Days 36 44  
Month to date heating degree days 1234  
Since 1 July heating degree days 3883  
Cooling Degree Days 0 0  
Month to date cooling degree days 0  
Year to date cooling degree days 0  
Moisture  
Dew Point 20 °F    
Average Humidity 68    
Maximum Humidity 86    
Minimum Humidity 53    
Precipitation  
Precipitation 0.00 in 0.06 in 0.73 in (2006)
Month to date precipitation 1.29  
Year to date precipitation 1.29  
Sea Level Pressure  
Sea Level Pressure 29.97 in    
Wind  
Wind Speed 18 mph (WSW)    
Max Wind Speed 25 mph    
Max Gust Speed 33 mph    
Visibility 9 miles    
Events Snow    
T = Trace of Precipitation, MM = Missing Value Source: NWS Daily Summary

Daily Weather History Graph

Daily Weather History Graph

Search for Another Location

Airport or City:

Trip Planner

Search our weather history database for the weather conditions in past years. The results will help you decide how hot, cold, wet, or windy it might be!

Date:

Astronomy

Jan. 28, 2012 Rise Set
Actual Time 7:11 AM CST 5:04 PM CST
Civil Twilight 6:41 AM CST 5:34 PM CST
Nautical Twilight 6:08 AM CST 6:07 PM CST
Astronomical Twilight 5:35 AM CST 6:40 PM CST
Moon 9:27 AM CST 10:59 PM CST
Length of Visible Light 10h 52m
Length of Day
9h 52m
Waxing Crescent, 28% of the Moon is Illuminated
Jan 28
Waxing Crescent
Jan 30
First Quarter
Feb 7
Full
Feb 14
Last Quarter
Feb 21
New

Hourly Weather History & Observations

Time (CST) Temp. Windchill Dew Point Humidity Pressure Visibility Wind Dir Wind Speed Gust Speed Precip Events Conditions
12:15 AM 32.9 °F 23.7 °F 29.1 °F 86% 29.84 in 2.5 mi SW 12.7 mph - N/A Snow Light Snow
12:35 AM 33.1 °F 23.0 °F 28.9 °F 85% 29.84 in 2.5 mi SW 15.0 mph - N/A Snow Light Snow
12:55 AM 33.1 °F 22.2 °F 28.9 °F 85% 29.83 in 2.5 mi SW 17.3 mph - N/A Snow Light Snow
1:15 AM 33.3 °F 24.1 °F 29.3 °F 85% 29.82 in 2.5 mi SW 12.7 mph - N/A Snow Light Snow
1:35 AM 33.8 °F 23.9 °F 29.7 °F 85% 29.81 in 4.0 mi SW 15.0 mph - N/A Snow Light Snow
1:55 AM 33.8 °F 22.5 °F 29.7 °F 85% 29.81 in 4.0 mi WSW 19.6 mph 24.2 mph N/A   Overcast
2:15 AM 33.8 °F 23.9 °F 29.3 °F 84% 29.82 in 10.0 mi West 15.0 mph 23.0 mph N/A   Overcast
2:35 AM 33.8 °F 22.5 °F 28.9 °F 82% 29.82 in 10.0 mi West 19.6 mph - N/A   Overcast
2:55 AM 33.8 °F 22.8 °F 28.4 °F 81% 29.81 in 10.0 mi West 18.4 mph 24.2 mph N/A   Overcast
3:15 AM 33.1 °F 20.9 °F 27.9 °F 81% 29.81 in 10.0 mi West 21.9 mph 28.8 mph N/A   Overcast
3:35 AM 32.5 °F 20.8 °F 27.3 °F 81% 29.81 in 10.0 mi West 19.6 mph 27.6 mph N/A   Overcast
3:55 AM 32.2 °F 20.4 °F 26.6 °F 80% 29.82 in 10.0 mi West 19.6 mph 28.8 mph N/A   Overcast
4:15 AM 31.8 °F 19.6 °F 25.7 °F 78% 29.83 in 10.0 mi West 20.7 mph 26.5 mph N/A   Overcast
4:35 AM 31.1 °F 18.6 °F 25.2 °F 79% 29.84 in 10.0 mi West 20.7 mph 27.6 mph N/A   Overcast
4:55 AM 30.6 °F 17.0 °F 24.3 °F 77% 29.85 in 10.0 mi West 24.2 mph 33.4 mph N/A   Overcast
5:15 AM 28.4 °F 14.7 °F 21.6 °F 76% 29.86 in 10.0 mi West 21.9 mph 32.2 mph N/A   Scattered Clouds
5:35 AM 27.7 °F 14.5 °F 20.7 °F 75% 29.88 in 10.0 mi West 19.6 mph 25.3 mph N/A   Clear
5:55 AM 26.6 °F 13.8 °F 19.0 °F 73% 29.89 in 10.0 mi West 17.3 mph 25.3 mph N/A   Clear
6:15 AM 25.7 °F 11.9 °F 17.6 °F 71% 29.91 in 10.0 mi West 19.6 mph 26.5 mph N/A   Clear
6:35 AM 25.3 °F 11.4 °F 16.3 °F 69% 29.92 in 10.0 mi West 19.6 mph 26.5 mph N/A   Clear
6:55 AM 25.2 °F 11.2 °F 16.3 °F 69% 29.94 in 10.0 mi West 19.6 mph - N/A   Clear
7:15 AM 24.4 °F 10.6 °F 16.2 °F 71% 29.95 in 10.0 mi West 18.4 mph 25.3 mph N/A   Clear
7:35 AM 24.4 °F 10.2 °F 15.8 °F 70% 29.96 in 10.0 mi West 19.6 mph 24.2 mph N/A   Clear
7:55 AM 24.4 °F 11.5 °F 15.8 °F 70% 29.97 in 10.0 mi West 16.1 mph 27.6 mph N/A   Clear
8:15 AM 24.8 °F 11.1 °F 15.8 °F 69% 29.98 in 10.0 mi West 18.4 mph 26.5 mph N/A   Clear
8:35 AM 25.2 °F 12.9 °F 15.8 °F 68% 29.98 in 10.0 mi West 15.0 mph 25.3 mph N/A   Clear
8:55 AM 25.5 °F 12.4 °F 16.0 °F 67% 29.99 in 10.0 mi West 17.3 mph 24.2 mph N/A   Clear
9:15 AM 25.7 °F 11.9 °F 16.5 °F 68% 29.99 in 10.0 mi West 19.6 mph 24.2 mph N/A   Clear
9:35 AM 26.2 °F 11.5 °F 16.7 °F 67% 30.00 in 10.0 mi West 23.0 mph 27.6 mph N/A   Clear
9:55 AM 27.1 °F 14.9 °F 16.3 °F 64% 30.02 in 10.0 mi WSW 16.1 mph 25.3 mph N/A   Clear
10:15 AM 27.9 °F 15.1 °F 16.5 °F 62% 30.03 in 10.0 mi West 18.4 mph 26.5 mph N/A   Clear
10:35 AM 28.0 °F 16.1 °F 16.3 °F 62% 30.04 in 10.0 mi West 16.1 mph 29.9 mph N/A   Clear
10:55 AM 28.4 °F 15.1 °F 16.5 °F 61% 30.04 in 10.0 mi West 20.7 mph - N/A   Clear
11:15 AM 29.1 °F 15.4 °F 16.7 °F 60% 30.04 in 10.0 mi West 23.0 mph 28.8 mph N/A   Clear
11:35 AM 29.1 °F 16.7 °F 16.3 °F 59% 30.04 in 10.0 mi WSW 18.4 mph 27.6 mph N/A   Clear
11:55 AM 29.1 °F 16.4 °F 16.5 °F 59% 30.04 in 10.0 mi West 19.6 mph 25.3 mph N/A   Clear
12:15 PM 29.1 °F 16.0 °F 16.0 °F 58% 30.04 in 10.0 mi West 20.7 mph 27.6 mph N/A   Clear
12:35 PM 29.3 °F 15.9 °F 16.3 °F 58% 30.04 in 10.0 mi West 21.9 mph 29.9 mph N/A   Clear
12:55 PM 29.7 °F 15.8 °F 16.3 °F 58% 30.04 in 10.0 mi West 24.2 mph 27.6 mph N/A   Clear
1:15 PM 30.2 °F 18.9 °F 16.9 °F 58% 30.04 in 10.0 mi WSW 16.1 mph 26.5 mph N/A   Clear
1:35 PM 30.2 °F 17.4 °F 16.7 °F 57% 30.04 in 10.0 mi WSW 20.7 mph 27.6 mph N/A   Clear
1:55 PM 30.6 °F 16.7 °F 16.9 °F 57% 30.04 in 10.0 mi WSW 25.3 mph 29.9 mph N/A   Clear
2:15 PM 30.9 °F 18.7 °F 16.2 °F 54% 30.05 in 10.0 mi West 19.6 mph 28.8 mph N/A   Clear
2:35 PM 31.1 °F 18.6 °F 16.7 °F 55% 30.06 in 10.0 mi WSW 20.7 mph 28.8 mph N/A   Clear
2:55 PM 31.1 °F 18.0 °F 16.3 °F 54% 30.07 in 10.0 mi WSW 23.0 mph 33.4 mph N/A   Clear
3:15 PM 31.6 °F 20.0 °F 17.2 °F 55% 30.07 in 10.0 mi WSW 18.4 mph 26.5 mph N/A   Clear
3:35 PM 31.5 °F 20.1 °F 17.2 °F 56% 30.08 in 10.0 mi WSW 17.3 mph 23.0 mph N/A   Clear
3:55 PM 31.5 °F 19.8 °F 16.5 °F 54% 30.08 in 10.0 mi WSW 18.4 mph 25.3 mph N/A   Clear
4:15 PM 31.1 °F 19.3 °F 16.7 °F 55% 30.08 in 10.0 mi WSW 18.4 mph - N/A   Clear
4:35 PM 31.1 °F 19.7 °F 15.6 °F 53% 30.09 in 10.0 mi WSW 17.3 mph 25.3 mph N/A   Clear
4:55 PM 30.4 °F 20.0 °F 16.2 °F 56% 30.09 in 10.0 mi WSW 13.8 mph - N/A   Clear
5:15 PM 30.2 °F 19.3 °F 16.5 °F 57% 30.09 in 10.0 mi WSW 15.0 mph - N/A   Clear
5:35 PM 30.2 °F 19.8 °F 18.3 °F 61% 30.09 in 10.0 mi WSW 13.8 mph - N/A   Clear
5:55 PM 30.2 °F 20.2 °F 19.4 °F 64% 30.09 in 10.0 mi WSW 12.7 mph - N/A   Clear
6:15 PM 29.8 °F 20.3 °F 19.0 °F 64% 30.09 in 10.0 mi SW 11.5 mph - N/A   Clear
6:35 PM 29.8 °F 21.5 °F 19.6 °F 66% 30.09 in 10.0 mi SW 9.2 mph - N/A   Scattered Clouds
6:55 PM 29.1 °F 20.6 °F 19.9 °F 69% 30.09 in 10.0 mi SW 9.2 mph - N/A   Overcast
7:15 PM 29.3 °F 20.2 °F 20.3 °F 69% 30.09 in 10.0 mi SW 10.4 mph - N/A   Mostly Cloudy
7:35 PM 30.6 °F 20.7 °F 22.5 °F 72% 30.08 in 10.0 mi SW 12.7 mph - N/A   Scattered Clouds
7:55 PM 30.9 °F 20.7 °F 22.6 °F 71% 30.08 in 10.0 mi SW 13.8 mph - N/A   Mostly Cloudy
8:15 PM 30.4 °F 19.5 °F 22.1 °F 71% 30.07 in 10.0 mi SW 15.0 mph - N/A   Scattered Clouds
8:35 PM 30.2 °F 20.8 °F 22.1 °F 72% 30.06 in 10.0 mi SW 11.5 mph - N/A   Clear
8:55 PM 29.3 °F 20.2 °F 21.6 °F 73% 30.05 in 10.0 mi SW 10.4 mph - N/A   Clear
9:15 PM 29.3 °F 20.2 °F 21.2 °F 72% 30.04 in 10.0 mi SW 10.4 mph - N/A   Clear
9:35 PM 30.2 °F 21.3 °F 22.1 °F 72% 30.03 in 10.0 mi SW 10.4 mph - N/A   Scattered Clouds
9:55 PM 29.5 °F 19.3 °F 21.7 °F 73% 30.02 in 10.0 mi SW 12.7 mph - N/A   Scattered Clouds
10:15 PM 30.2 °F 20.2 °F 21.9 °F 71% 30.02 in 10.0 mi SW 12.7 mph - N/A   Clear
10:35 PM 30.4 °F 20.0 °F 21.7 °F 70% 30.02 in 10.0 mi SW 13.8 mph - N/A   Clear
10:55 PM 30.2 °F 19.8 °F 21.7 °F 71% 30.02 in 10.0 mi SW 13.8 mph - N/A   Clear
11:15 PM 30.9 °F 20.2 °F 21.7 °F 69% 30.01 in 10.0 mi WSW 15.0 mph 20.7 mph N/A   Clear
11:35 PM 31.5 °F 20.1 °F 22.1 °F 68% 30.01 in 10.0 mi WSW 17.3 mph 23.0 mph N/A   Clear
11:55 PM 31.5 °F 20.1 °F 22.1 °F 68% 30.01 in 10.0 mi WSW 17.3 mph 21.9 mph N/A   Clear